Time,TemperatureF,DewpointF,PressureIn,WindDirection,WindDirectionDegrees,WindSpeedMPH,WindSpeedGustMPH,Humidity,HourlyPrecipIn,Conditions,Clouds,dailyrainin,SolarRadiationWatts/m^2,SoftwareType,DateUTC
2013-04-01 00:00:00,46.7,39.9,29.48,SSE,148,7.0,7.0,77,0.00,,,0.01,0,WeatherCatV1.12B45,2013-04-01 04:00:00,
2013-04-01 00:05:00,46.5,40.3,29.47,SSE,165,3.0,5.0,79,0.00,,,0.01,0,WeatherCatV1.12B45,2013-04-01 04:05:00,
2013-04-01 00:06:00,46.4,40.2,29.47,SSE,154,2.0,3.0,79,0.00,,,0.01,0,WeatherCatV1.12B45,2013-04-01 04:06:00,
2013-04-01 00:11:00,46.3,40.5,29.47,SSE,152,1.0,10.0,80,0.07,,,0.02,0,WeatherCatV1.12B45,2013-04-01 04:11:00,
2013-04-01 00:12:00,46.3,40.5,29.47,SSE,159,3.0,10.0,80,0.07,,,0.02,0,WeatherCatV1.12B45,2013-04-01 04:12:00,
2013-04-01 00:16:00,46.1,40.6,29.46,SE,138,0.0,3.0,81,0.07,,,0.02,0,WeatherCatV1.12B45,2013-04-01 04:16:00,
2013-04-01 00:21:00,46.0,40.8,29.46,SSE,158,1.0,6.0,82,0.06,,,0.02,0,WeatherCatV1.12B45,2013-04-01 04:21:00,
2013-04-01 00:26:00,45.8,40.9,29.45,SE,132,3.0,11.0,83,0.04,,,0.02,0,WeatherCatV1.12B45,2013-04-01 04:26:00,
2013-04-01 00:31:00,45.7,41.1,29.45,SSE,159,4.0,4.0,84,0.00,,,0.02,0,WeatherCatV1.12B45,2013-04-01 04:31:00,
2013-04-01 00:36:00,45.6,41.0,29.44,South,169,12.0,12.0,84,0.00,,,0.02,0,WeatherCatV1.12B45,2013-04-01 04:36:00,
2013-04-01 00:41:00,45.6,41.4,29.44,SSE,148,2.0,12.0,85,0.00,,,0.02,0,WeatherCatV1.12B45,2013-04-01 04:41:00,
2013-04-01 00:46:00,45.6,41.4,29.43,ESE,115,1.0,6.0,85,0.00,,,0.02,0,WeatherCatV1.12B45,2013-04-01 04:46:00,
2013-04-01 00:51:00,45.5,41.3,29.42,SE,126,6.0,7.0,85,0.00,,,0.02,0,WeatherCatV1.12B45,2013-04-01 04:51:00,
2013-04-01 00:56:00,45.5,41.6,29.42,East,99,2.0,10.0,86,0.00,,,0.02,0,WeatherCatV1.12B45,2013-04-01 04:56:00,
2013-04-01 01:01:00,45.5,41.6,29.41,SE,142,1.0,3.0,86,0.00,,,0.02,0,WeatherCatV1.12B45,2013-04-01 05:01:00,
2013-04-01 01:06:00,45.5,41.6,29.41,SSE,150,4.0,4.0,86,0.00,,,0.02,0,WeatherCatV1.12B45,2013-04-01 05:06:00,
2013-04-01 01:11:00,45.5,41.9,29.40,ESE,102,2.0,6.0,87,0.00,,,0.02,0,WeatherCatV1.12B45,2013-04-01 05:11:00,
2013-04-01 01:16:00,45.5,41.9,29.40,ESE,108,1.0,7.0,87,0.00,,,0.02,0,WeatherCatV1.12B45,2013-04-01 05:16:00,
2013-04-01 01:21:00,45.6,42.0,29.39,SE,141,2.0,4.0,87,0.00,,,0.02,0,WeatherCatV1.12B45,2013-04-01 05:21:00,
2013-04-01 01:26:00,45.6,42.0,29.39,SSE,152,2.0,4.0,87,0.00,,,0.02,0,WeatherCatV1.12B45,2013-04-01 05:26:00,
2013-04-01 01:31:00,45.6,42.0,29.38,SE,130,1.0,3.0,87,0.00,,,0.02,0,WeatherCatV1.12B45,2013-04-01 05:31:00,
2013-04-01 01:36:00,45.5,42.2,29.37,SE,143,1.0,6.0,88,0.00,,,0.02,0,WeatherCatV1.12B45,2013-04-01 05:36:00,
2013-04-01 01:41:00,45.5,42.2,29.37,SSE,156,3.0,3.0,88,0.00,,,0.03,0,WeatherCatV1.12B45,2013-04-01 05:41:00,
2013-04-01 01:46:00,45.4,42.1,29.36,SE,141,2.0,3.0,88,0.00,,,0.03,0,WeatherCatV1.12B45,2013-04-01 05:46:00,
2013-04-01 01:51:00,45.4,42.1,29.35,ENE,65,1.0,6.0,88,0.00,,,0.03,0,WeatherCatV1.12B45,2013-04-01 05:51:00,
2013-04-01 01:56:00,45.3,42.3,29.35,SE,146,1.0,4.0,89,0.04,,,0.04,0,WeatherCatV1.12B45,2013-04-01 05:56:00,
2013-04-01 02:01:00,45.3,42.3,29.34,East,81,4.0,11.0,89,0.04,,,0.04,0,WeatherCatV1.12B45,2013-04-01 06:01:00,
2013-04-01 02:06:00,45.2,42.2,29.33,SE,126,0.0,5.0,89,0.04,,,0.04,0,WeatherCatV1.12B45,2013-04-01 06:06:00,
2013-04-01 02:11:00,45.1,42.1,29.33,ENE,65,1.0,3.0,89,0.00,,,0.04,0,WeatherCatV1.12B45,2013-04-01 06:11:00,
2013-04-01 02:16:00,45.0,42.0,29.32,SSE,148,1.0,3.0,89,0.00,,,0.05,0,WeatherCatV1.12B45,2013-04-01 06:16:00,
2013-04-01 02:21:00,44.8,41.8,29.32,ESE,123,1.0,3.0,89,0.00,,,0.05,0,WeatherCatV1.12B45,2013-04-01 06:21:00,
2013-04-01 02:26:00,44.6,41.6,29.32,SSE,155,1.0,3.0,89,0.00,,,0.05,0,WeatherCatV1.12B45,2013-04-01 06:26:00,
2013-04-01 02:31:00,44.4,41.4,29.32,NNW,339,0.0,2.0,89,0.04,,,0.06,0,WeatherCatV1.12B45,2013-04-01 06:31:00,
2013-04-01 02:36:00,44.3,41.6,29.32,SSE,157,1.0,2.0,90,0.04,,,0.06,0,WeatherCatV1.12B45,2013-04-01 06:36:00,
2013-04-01 02:41:00,44.2,41.5,29.31,SSE,157,0.0,1.0,90,0.04,,,0.06,0,WeatherCatV1.12B45,2013-04-01 06:41:00,
2013-04-01 02:46:00,44.2,41.5,29.31,ESE,108,0.0,1.0,90,0.00,,,0.06,0,WeatherCatV1.12B45,2013-04-01 06:46:00,
2013-04-01 02:51:00,44.0,41.3,29.30,SSE,165,0.0,3.0,90,0.00,,,0.06,0,WeatherCatV1.12B45,2013-04-01 06:51:00,
2013-04-01 02:56:00,44.0,41.3,29.30,SSE,159,2.0,2.0,90,0.00,,,0.07,0,WeatherCatV1.12B45,2013-04-01 06:56:00,
2013-04-01 03:01:00,43.9,41.2,29.30,East,81,0.0,0.0,90,0.00,,,0.07,0,WeatherCatV1.12B45,2013-04-01 07:01:00,
2013-04-01 03:06:00,43.9,41.2,29.30,NNW,336,1.0,3.0,90,0.00,,,0.07,0,WeatherCatV1.12B45,2013-04-01 07:06:00,
2013-04-01 03:11:00,43.8,41.1,29.29,NNW,336,1.0,2.0,90,0.00,,,0.07,0,WeatherCatV1.12B45,2013-04-01 07:11:00,
2013-04-01 03:16:00,43.8,41.3,29.29,NNW,336,0.0,0.0,91,0.00,,,0.08,0,WeatherCatV1.12B45,2013-04-01 07:16:00,
2013-04-01 03:21:00,43.7,41.0,29.29,NNW,336,0.0,0.0,90,0.00,,,0.08,0,WeatherCatV1.12B45,2013-04-01 07:21:00,
2013-04-01 03:26:00,43.7,41.0,29.29,NNW,336,0.0,0.0,90,0.00,,,0.08,0,WeatherCatV1.12B45,2013-04-01 07:26:00,
2013-04-01 03:31:00,43.7,41.0,29.29,NNW,336,0.0,1.0,90,0.00,,,0.08,0,WeatherCatV1.12B45,2013-04-01 07:31:00,
2013-04-01 03:36:00,43.6,41.1,29.28,NNW,336,0.0,0.0,91,0.00,,,0.08,0,WeatherCatV1.12B45,2013-04-01 07:36:00,
2013-04-01 03:41:00,43.6,41.1,29.28,NNW,336,0.0,0.0,91,0.00,,,0.08,0,WeatherCatV1.12B45,2013-04-01 07:41:00,
2013-04-01 03:46:00,43.6,41.1,29.29,NNW,336,0.0,0.0,91,0.00,,,0.08,0,WeatherCatV1.12B45,2013-04-01 07:46:00,
2013-04-01 03:51:00,43.6,41.1,29.29,NNW,336,0.0,0.0,91,0.00,,,0.08,0,WeatherCatV1.12B45,2013-04-01 07:51:00,
2013-04-01 03:56:00,43.7,41.2,29.29,NNW,336,0.0,0.0,91,0.00,,,0.08,0,WeatherCatV1.12B45,2013-04-01 07:56:00,
2013-04-01 04:01:00,43.7,41.2,29.28,NNW,336,0.0,0.0,91,0.00,,,0.08,0,WeatherCatV1.12B45,2013-04-01 08:01:00,
2013-04-01 04:06:00,43.6,41.1,29.29,NNW,331,0.0,1.0,91,0.00,,,0.09,0,WeatherCatV1.12B45,2013-04-01 08:06:00,
2013-04-01 04:11:00,43.7,41.2,29.28,NNW,332,0.0,1.0,91,0.00,,,0.09,0,WeatherCatV1.12B45,2013-04-01 08:11:00,
2013-04-01 04:16:00,43.6,41.1,29.28,NNW,332,0.0,1.0,91,0.00,,,0.09,0,WeatherCatV1.12B45,2013-04-01 08:16:00,
2013-04-01 04:21:00,43.6,41.1,29.28,NNW,332,0.0,1.0,91,0.00,,,0.09,0,WeatherCatV1.12B45,2013-04-01 08:21:00,
2013-04-01 04:26:00,43.6,41.1,29.27,NNW,331,0.0,0.0,91,0.00,,,0.09,0,WeatherCatV1.12B45,2013-04-01 08:26:00,
2013-04-01 04:31:00,43.6,41.1,29.28,NNW,332,0.0,1.0,91,0.00,,,0.09,0,WeatherCatV1.12B45,2013-04-01 08:31:00,
2013-04-01 04:36:00,43.6,41.1,29.28,NNW,332,0.0,0.0,91,0.00,,,0.09,0,WeatherCatV1.12B45,2013-04-01 08:36:00,
2013-04-01 04:41:00,43.6,41.1,29.28,NNW,332,0.0,0.0,91,0.00,,,0.09,0,WeatherCatV1.12B45,2013-04-01 08:41:00,
2013-04-01 04:46:00,43.7,41.2,29.29,NNW,332,0.0,3.0,91,0.00,,,0.09,0,WeatherCatV1.12B45,2013-04-01 08:46:00,
2013-04-01 04:51:00,43.7,41.2,29.30,NNW,331,0.0,1.0,91,0.00,,,0.09,0,WeatherCatV1.12B45,2013-04-01 08:51:00,
2013-04-01 04:56:00,43.7,41.2,29.29,NNW,331,0.0,0.0,91,0.00,,,0.09,0,WeatherCatV1.12B45,2013-04-01 08:56:00,
2013-04-01 05:01:00,43.7,41.5,29.30,NNW,331,0.0,1.0,92,0.00,,,0.09,0,WeatherCatV1.12B45,2013-04-01 09:01:00,
2013-04-01 05:06:00,43.7,41.5,29.30,NNW,332,0.0,1.0,92,0.00,,,0.09,0,WeatherCatV1.12B45,2013-04-01 09:06:00,
2013-04-01 05:11:00,43.8,41.6,29.30,NNW,332,0.0,1.0,92,0.00,,,0.09,0,WeatherCatV1.12B45,2013-04-01 09:11:00,
2013-04-01 05:16:00,43.8,41.6,29.30,NNW,331,1.0,3.0,92,0.00,,,0.09,0,WeatherCatV1.12B45,2013-04-01 09:16:00,
2013-04-01 05:21:00,43.9,41.7,29.30,NNW,331,0.0,1.0,92,0.00,,,0.09,0,WeatherCatV1.12B45,2013-04-01 09:21:00,
2013-04-01 05:26:00,43.9,41.7,29.30,WNW,295,3.0,3.0,92,0.00,,,0.09,0,WeatherCatV1.12B45,2013-04-01 09:26:00,
2013-04-01 05:31:00,43.8,41.6,29.30,WNW,302,1.0,3.0,92,0.00,,,0.09,0,WeatherCatV1.12B45,2013-04-01 09:31:00,
2013-04-01 05:36:00,43.8,41.6,29.30,West,276,1.0,2.0,92,0.00,,,0.09,0,WeatherCatV1.12B45,2013-04-01 09:36:00,
2013-04-01 05:41:00,43.6,41.4,29.31,West,261,0.0,2.0,92,0.00,,,0.09,0,WeatherCatV1.12B45,2013-04-01 09:41:00,
2013-04-01 05:46:00,43.6,41.4,29.32,NNW,329,0.0,2.0,92,0.00,,,0.09,0,WeatherCatV1.12B45,2013-04-01 09:46:00,
2013-04-01 05:51:00,43.4,41.2,29.32,NW,304,0.0,2.0,92,0.00,,,0.09,0,WeatherCatV1.12B45,2013-04-01 09:51:00,
2013-04-01 05:56:00,43.3,41.1,29.33,West,279,0.0,1.0,92,0.00,,,0.09,0,WeatherCatV1.12B45,2013-04-01 09:56:00,
2013-04-01 06:01:00,43.3,41.1,29.33,West,280,0.0,3.0,92,0.00,,,0.09,0,WeatherCatV1.12B45,2013-04-01 10:01:00,
2013-04-01 06:06:00,43.2,41.0,29.33,West,279,0.0,1.0,92,0.00,,,0.09,0,WeatherCatV1.12B45,2013-04-01 10:06:00,
2013-04-01 06:11:00,43.2,41.0,29.33,WNW,285,0.0,1.0,92,0.00,,,0.09,0,WeatherCatV1.12B45,2013-04-01 10:11:00,
2013-04-01 06:16:00,43.1,40.9,29.34,West,262,0.0,4.0,92,0.00,,,0.09,0,WeatherCatV1.12B45,2013-04-01 10:16:00,
2013-04-01 06:21:00,43.0,40.8,29.34,NW,315,0.0,3.0,92,0.00,,,0.09,0,WeatherCatV1.12B45,2013-04-01 10:21:00,
2013-04-01 06:26:00,42.9,40.7,29.34,West,276,0.0,2.0,92,0.00,,,0.09,0,WeatherCatV1.12B45,2013-04-01 10:26:00,
2013-04-01 06:31:00,42.9,40.7,29.34,WNW,302,0.0,5.0,92,0.00,,,0.09,0,WeatherCatV1.12B45,2013-04-01 10:31:00,
2013-04-01 06:36:00,42.8,40.6,29.34,SW,221,0.0,1.0,92,0.00,,,0.09,0,WeatherCatV1.12B45,2013-04-01 10:36:00,
2013-04-01 06:41:00,42.7,40.5,29.34,SW,233,0.0,4.0,92,0.00,,,0.09,5,WeatherCatV1.12B45,2013-04-01 10:41:00,
2013-04-01 06:46:00,42.7,40.5,29.34,SW,223,0.0,2.0,92,0.00,,,0.09,5,WeatherCatV1.12B45,2013-04-01 10:46:00,
2013-04-01 06:51:00,42.6,40.4,29.34,South,175,0.0,2.0,92,0.00,,,0.09,12,WeatherCatV1.12B45,2013-04-01 10:51:00,
2013-04-01 06:56:00,42.6,40.4,29.35,WSW,240,1.0,3.0,92,0.00,,,0.09,7,WeatherCatV1.12B45,2013-04-01 10:56:00,
2013-04-01 07:01:00,42.6,40.4,29.35,WNW,299,2.0,3.0,92,0.00,,,0.09,9,WeatherCatV1.12B45,2013-04-01 11:01:00,
2013-04-01 07:06:00,42.6,40.4,29.35,WNW,299,0.0,0.0,92,0.00,,,0.09,9,WeatherCatV1.12B45,2013-04-01 11:06:00,
2013-04-01 07:11:00,42.6,40.4,29.35,WNW,283,0.0,2.0,92,0.00,,,0.09,18,WeatherCatV1.12B45,2013-04-01 11:11:00,
2013-04-01 07:16:00,42.6,40.4,29.35,NNW,331,0.0,3.0,92,0.00,,,0.09,16,WeatherCatV1.12B45,2013-04-01 11:16:00,
2013-04-01 07:21:00,42.5,40.3,29.35,SW,214,0.0,3.0,92,0.00,,,0.09,26,WeatherCatV1.12B45,2013-04-01 11:21:00,
2013-04-01 07:26:00,42.5,40.3,29.35,North,350,0.0,2.0,92,0.00,,,0.09,30,WeatherCatV1.12B45,2013-04-01 11:26:00,
2013-04-01 07:31:00,42.5,40.3,29.35,West,275,1.0,9.0,92,0.00,,,0.09,33,WeatherCatV1.12B45,2013-04-01 11:31:00,
2013-04-01 07:36:00,42.5,40.3,29.35,South,180,0.0,3.0,92,0.00,,,0.09,37,WeatherCatV1.12B45,2013-04-01 11:36:00,
2013-04-01 07:41:00,42.5,40.3,29.35,WNW,288,0.0,4.0,92,0.00,,,0.09,63,WeatherCatV1.12B45,2013-04-01 11:41:00,
2013-04-01 07:46:00,42.5,40.3,29.35,SW,223,0.0,3.0,92,0.00,,,0.09,77,WeatherCatV1.12B45,2013-04-01 11:46:00,
2013-04-01 07:51:00,42.6,40.4,29.35,WNW,296,0.0,6.0,92,0.00,,,0.09,95,WeatherCatV1.12B45,2013-04-01 11:51:00,
2013-04-01 07:56:00,42.7,40.5,29.35,NW,306,1.0,3.0,92,0.00,,,0.09,72,WeatherCatV1.12B45,2013-04-01 11:56:00,
2013-04-01 08:01:00,42.9,41.0,29.35,NW,305,0.0,4.0,93,0.00,,,0.09,95,WeatherCatV1.12B45,2013-04-01 12:01:00,
2013-04-01 08:06:00,43.0,41.1,29.35,NW,305,0.0,1.0,93,0.00,,,0.09,93,WeatherCatV1.12B45,2013-04-01 12:06:00,
2013-04-01 08:11:00,43.2,41.3,29.35,NW,309,0.0,2.0,93,0.00,,,0.09,139,WeatherCatV1.12B45,2013-04-01 12:11:00,
2013-04-01 08:16:00,43.4,41.5,29.35,WNW,288,3.0,3.0,93,0.00,,,0.09,107,WeatherCatV1.12B45,2013-04-01 12:16:00,
2013-04-01 08:21:00,43.7,41.5,29.35,WSW,246,0.0,2.0,92,0.00,,,0.09,139,WeatherCatV1.12B45,2013-04-01 12:21:00,
2013-04-01 08:26:00,44.3,42.1,29.35,NW,326,3.0,3.0,92,0.00,,,0.09,142,WeatherCatV1.12B45,2013-04-01 12:26:00,
2013-04-01 08:31:00,44.7,42.2,29.35,WNW,292,0.0,5.0,91,0.00,,,0.09,105,WeatherCatV1.12B45,2013-04-01 12:31:00,
2013-04-01 08:36:00,45.5,43.3,29.35,SW,230,1.0,4.0,92,0.00,,,0.09,183,WeatherCatV1.12B45,2013-04-01 12:36:00,
2013-04-01 08:41:00,46.0,43.2,29.35,WNW,298,2.0,4.0,90,0.00,,,0.09,438,WeatherCatV1.12B45,2013-04-01 12:41:00,
2013-04-01 08:46:00,46.8,43.4,29.35,North,355,2.0,5.0,88,0.00,,,0.09,450,WeatherCatV1.12B45,2013-04-01 12:46:00,
2013-04-01 08:51:00,47.0,43.3,29.35,NW,304,1.0,4.0,87,0.00,,,0.09,499,WeatherCatV1.12B45,2013-04-01 12:51:00,
2013-04-01 08:56:00,48.1,44.1,29.35,WNW,297,1.0,3.0,86,0.00,,,0.09,520,WeatherCatV1.12B45,2013-04-01 12:56:00,
2013-04-01 09:01:00,47.8,43.2,29.35,WSW,258,0.0,3.0,84,0.00,,,0.09,425,WeatherCatV1.12B45,2013-04-01 13:01:00,
2013-04-01 09:06:00,47.8,42.9,29.35,West,273,2.0,3.0,83,0.00,,,0.09,302,WeatherCatV1.12B45,2013-04-01 13:06:00,
2013-04-01 09:11:00,48.1,43.2,29.35,NW,311,0.0,4.0,83,0.00,,,0.09,399,WeatherCatV1.12B45,2013-04-01 13:11:00,
2013-04-01 09:16:00,48.8,43.2,29.35,SE,146,0.0,4.0,81,0.00,,,0.09,561,WeatherCatV1.12B45,2013-04-01 13:16:00,
2013-04-01 09:21:00,49.6,43.4,29.35,WNW,294,0.0,2.0,79,0.00,,,0.09,541,WeatherCatV1.12B45,2013-04-01 13:21:00,
2013-04-01 09:26:00,50.6,43.7,29.35,SSW,211,1.0,4.0,77,0.00,,,0.09,399,WeatherCatV1.12B45,2013-04-01 13:26:00,
2013-04-01 09:31:00,50.3,43.0,29.35,WNW,296,3.0,6.0,76,0.00,,,0.09,536,WeatherCatV1.12B45,2013-04-01 13:31:00,
2013-04-01 09:36:00,50.1,42.5,29.35,WNW,287,4.0,4.0,75,0.00,,,0.09,299,WeatherCatV1.12B45,2013-04-01 13:36:00,
2013-04-01 09:41:00,50.5,43.2,29.35,West,259,1.0,2.0,76,0.00,,,0.09,670,WeatherCatV1.12B45,2013-04-01 13:41:00,
2013-04-01 09:47:00,51.4,43.4,29.35,West,269,1.0,4.0,74,0.00,,,0.09,759,WeatherCatV1.12B45,2013-04-01 13:47:00,
2013-04-01 09:51:00,52.0,42.9,29.35,NNW,328,2.0,2.0,71,0.00,,,0.09,770,WeatherCatV1.12B45,2013-04-01 13:51:00,
2013-04-01 09:56:00,50.9,41.8,29.35,NW,304,4.0,5.0,71,0.00,,,0.09,606,WeatherCatV1.12B45,2013-04-01 13:56:00,
2013-04-01 10:01:00,50.7,42.7,29.35,NNW,333,0.0,4.0,74,0.00,,,0.09,262,WeatherCatV1.12B45,2013-04-01 14:01:00,
2013-04-01 10:06:00,52.7,43.6,29.35,WNW,298,1.0,3.0,71,0.00,,,0.09,796,WeatherCatV1.12B45,2013-04-01 14:06:00,
2013-04-01 10:11:00,53.3,44.1,29.35,NW,308,0.0,3.0,71,0.00,,,0.09,824,WeatherCatV1.12B45,2013-04-01 14:11:00,
2013-04-01 10:17:00,54.1,44.2,29.35,NW,306,0.0,5.0,69,0.00,,,0.09,851,WeatherCatV1.12B45,2013-04-01 14:17:00,
2013-04-01 10:22:00,54.1,43.0,29.35,NNE,31,2.0,9.0,66,0.00,,,0.09,858,WeatherCatV1.12B45,2013-04-01 14:22:00,
2013-04-01 10:26:00,54.3,44.3,29.35,NW,308,3.0,4.0,69,0.00,,,0.09,267,WeatherCatV1.12B45,2013-04-01 14:26:00,
2013-04-01 10:31:00,55.1,43.9,29.35,SE,137,1.0,7.0,66,0.00,,,0.09,710,WeatherCatV1.12B45,2013-04-01 14:31:00,
2013-04-01 10:37:00,54.0,43.7,29.35,SSW,202,0.0,6.0,68,0.00,,,0.09,272,WeatherCatV1.12B45,2013-04-01 14:37:00,
2013-04-01 10:41:00,53.9,43.6,29.35,WNW,303,1.0,5.0,68,0.00,,,0.09,777,WeatherCatV1.12B45,2013-04-01 14:41:00,
2013-04-01 10:47:00,54.6,43.5,29.35,South,180,0.0,1.0,66,0.00,,,0.09,803,WeatherCatV1.12B45,2013-04-01 14:47:00,
2013-04-01 10:52:00,55.2,44.8,29.35,SSE,167,2.0,2.0,68,0.00,,,0.09,796,WeatherCatV1.12B45,2013-04-01 14:52:00,
2013-04-01 10:57:00,55.2,44.4,29.35,South,171,0.0,2.0,67,0.00,,,0.09,796,WeatherCatV1.12B45,2013-04-01 14:57:00,
2013-04-01 11:02:00,55.8,44.2,29.34,SE,142,3.0,4.0,65,0.00,,,0.09,802,WeatherCatV1.12B45,2013-04-01 15:02:00,
2013-04-01 11:07:00,56.4,44.4,29.34,SSE,156,0.0,4.0,64,0.00,,,0.09,810,WeatherCatV1.12B45,2013-04-01 15:07:00,
2013-04-01 11:12:00,55.7,43.3,29.34,SSE,153,3.0,5.0,63,0.00,,,0.09,817,WeatherCatV1.12B45,2013-04-01 15:12:00,
2013-04-01 11:17:00,56.4,43.5,29.34,WNW,302,3.0,6.0,62,0.00,,,0.09,819,WeatherCatV1.12B45,2013-04-01 15:17:00,
2013-04-01 11:22:00,56.8,44.3,29.33,WNW,294,1.0,4.0,63,0.00,,,0.09,826,WeatherCatV1.12B45,2013-04-01 15:22:00,
2013-04-01 11:27:00,57.6,44.7,29.33,SSE,159,6.0,6.0,62,0.00,,,0.09,833,WeatherCatV1.12B45,2013-04-01 15:27:00,
2013-04-01 11:32:00,57.5,43.7,29.33,West,266,1.0,2.0,60,0.00,,,0.09,833,WeatherCatV1.12B45,2013-04-01 15:32:00,
2013-04-01 11:37:00,57.9,43.2,29.33,South,173,0.0,5.0,58,0.00,,,0.09,838,WeatherCatV1.12B45,2013-04-01 15:37:00,
2013-04-01 11:42:00,58.2,44.4,29.32,NNW,341,1.0,3.0,60,0.00,,,0.09,847,WeatherCatV1.12B45,2013-04-01 15:42:00,
2013-04-01 11:47:00,58.2,43.9,29.33,South,175,1.0,4.0,59,0.00,,,0.09,847,WeatherCatV1.12B45,2013-04-01 15:47:00,
2013-04-01 11:52:00,59.0,43.8,29.33,SSE,148,0.0,2.0,57,0.00,,,0.09,856,WeatherCatV1.12B45,2013-04-01 15:52:00,
2013-04-01 11:57:00,59.4,44.6,29.32,NW,306,3.0,3.0,58,0.00,,,0.09,842,WeatherCatV1.12B45,2013-04-01 15:57:00,
2013-04-01 12:02:00,59.0,44.2,29.32,SSE,161,0.0,4.0,58,0.00,,,0.09,849,WeatherCatV1.12B45,2013-04-01 16:02:00,
2013-04-01 12:07:00,59.7,44.9,29.32,SE,145,3.0,5.0,58,0.00,,,0.09,849,WeatherCatV1.12B45,2013-04-01 16:07:00,
2013-04-01 12:12:00,59.8,44.1,29.32,ENE,70,2.0,3.0,56,0.00,,,0.09,561,WeatherCatV1.12B45,2013-04-01 16:12:00,
2013-04-01 12:17:00,60.1,42.9,29.32,South,169,4.0,9.0,53,0.00,,,0.09,853,WeatherCatV1.12B45,2013-04-01 16:17:00,
2013-04-01 12:22:00,60.4,43.7,29.31,South,173,0.0,6.0,54,0.00,,,0.09,680,WeatherCatV1.12B45,2013-04-01 16:22:00,
2013-04-01 12:27:00,61.3,43.0,29.31,SSE,157,2.0,9.0,51,0.00,,,0.09,872,WeatherCatV1.12B45,2013-04-01 16:27:00,
2013-04-01 12:32:00,61.5,44.7,29.31,North,0,1.0,5.0,54,0.00,,,0.09,863,WeatherCatV1.12B45,2013-04-01 16:32:00,
2013-04-01 12:37:00,61.2,43.9,29.31,SSE,159,1.0,4.0,53,0.00,,,0.09,879,WeatherCatV1.12B45,2013-04-01 16:37:00,
2013-04-01 12:42:00,61.2,43.4,29.30,SSW,192,7.0,8.0,52,0.00,,,0.09,911,WeatherCatV1.12B45,2013-04-01 16:42:00,
2013-04-01 12:47:00,61.4,44.1,29.30,NW,322,3.0,4.0,53,0.00,,,0.09,851,WeatherCatV1.12B45,2013-04-01 16:47:00,
2013-04-01 12:52:00,61.7,43.9,29.30,NE,38,2.0,3.0,52,0.00,,,0.09,849,WeatherCatV1.12B45,2013-04-01 16:52:00,
2013-04-01 12:57:00,62.1,44.3,29.30,SSE,163,3.0,5.0,52,0.00,,,0.09,872,WeatherCatV1.12B45,2013-04-01 16:57:00,
2013-04-01 13:02:00,62.3,44.4,29.29,SE,140,1.0,5.0,52,0.00,,,0.09,858,WeatherCatV1.12B45,2013-04-01 17:02:00,
2013-04-01 13:07:00,62.7,43.8,29.29,SSE,153,4.0,11.0,50,0.00,,,0.09,918,WeatherCatV1.12B45,2013-04-01 17:07:00,
2013-04-01 13:12:00,63.0,44.1,29.29,SSE,159,3.0,5.0,50,0.00,,,0.09,986,WeatherCatV1.12B45,2013-04-01 17:12:00,
2013-04-01 13:17:00,63.4,43.9,29.29,SE,143,2.0,7.0,49,0.00,,,0.09,1002,WeatherCatV1.12B45,2013-04-01 17:17:00,
2013-04-01 13:22:00,63.1,44.2,29.28,ESE,115,0.0,4.0,50,0.00,,,0.09,949,WeatherCatV1.12B45,2013-04-01 17:22:00,
2013-04-01 13:27:00,63.4,43.4,29.28,NNW,331,3.0,4.0,48,0.00,,,0.09,221,WeatherCatV1.12B45,2013-04-01 17:27:00,
2013-04-01 13:32:00,62.4,42.4,29.28,ESE,105,1.0,3.0,48,0.00,,,0.09,130,WeatherCatV1.12B45,2013-04-01 17:32:00,
2013-04-01 13:37:00,61.6,42.8,29.28,South,180,0.0,4.0,50,0.00,,,0.09,169,WeatherCatV1.12B45,2013-04-01 17:37:00,
2013-04-01 13:42:00,61.8,42.4,29.27,SSW,204,1.0,4.0,49,0.00,,,0.09,248,WeatherCatV1.12B45,2013-04-01 17:42:00,
2013-04-01 13:47:00,62.0,42.6,29.27,South,172,1.0,5.0,49,0.00,,,0.09,176,WeatherCatV1.12B45,2013-04-01 17:47:00,
2013-04-01 13:52:00,62.2,42.3,29.27,South,171,5.0,7.0,48,0.00,,,0.09,229,WeatherCatV1.12B45,2013-04-01 17:52:00,
2013-04-01 13:57:00,61.8,41.4,29.27,NW,307,1.0,10.0,47,0.00,,,0.09,148,WeatherCatV1.12B45,2013-04-01 17:57:00,
2013-04-01 14:02:00,61.6,42.2,29.26,South,174,0.0,1.0,49,0.00,,,0.09,251,WeatherCatV1.12B45,2013-04-01 18:02:00,
2013-04-01 14:07:00,61.9,42.0,29.26,NW,321,1.0,3.0,48,0.00,,,0.09,109,WeatherCatV1.12B45,2013-04-01 18:07:00,
2013-04-01 14:12:00,61.6,41.2,29.26,NW,313,0.0,6.0,47,0.00,,,0.09,165,WeatherCatV1.12B45,2013-04-01 18:12:00,
2013-04-01 14:17:00,61.5,41.6,29.26,NW,304,3.0,5.0,48,0.00,,,0.09,135,WeatherCatV1.12B45,2013-04-01 18:17:00,
2013-04-01 14:22:00,61.2,41.3,29.26,North,0,2.0,16.0,48,0.00,,,0.09,172,WeatherCatV1.12B45,2013-04-01 18:22:00,
2013-04-01 14:27:00,61.1,41.8,29.25,West,259,0.0,1.0,49,0.00,,,0.09,186,WeatherCatV1.12B45,2013-04-01 18:27:00,
2013-04-01 14:32:00,61.4,41.5,29.25,SE,128,0.0,4.0,48,0.00,,,0.09,128,WeatherCatV1.12B45,2013-04-01 18:32:00,
2013-04-01 14:37:00,61.4,41.5,29.25,SSE,161,1.0,10.0,48,0.00,,,0.09,192,WeatherCatV1.12B45,2013-04-01 18:37:00,
2013-04-01 14:42:00,61.8,40.8,29.25,North,0,2.0,12.0,46,0.00,,,0.09,183,WeatherCatV1.12B45,2013-04-01 18:42:00,
2013-04-01 14:47:00,61.5,40.5,29.25,SSE,167,4.0,5.0,46,0.00,,,0.09,107,WeatherCatV1.12B45,2013-04-01 18:47:00,
2013-04-01 14:52:00,61.4,40.4,29.25,SE,140,2.0,7.0,46,0.00,,,0.09,118,WeatherCatV1.12B45,2013-04-01 18:52:00,
2013-04-01 14:57:00,61.4,42.1,29.24,South,173,1.0,7.0,49,0.00,,,0.09,141,WeatherCatV1.12B45,2013-04-01 18:57:00,
2013-04-01 15:02:00,61.3,43.0,29.24,SE,125,2.0,3.0,51,0.00,,,0.09,93,WeatherCatV1.12B45,2013-04-01 19:02:00,
2013-04-01 15:07:00,61.1,44.3,29.24,SSE,160,6.0,13.0,54,0.00,,,0.09,74,WeatherCatV1.12B45,2013-04-01 19:07:00,
2013-04-01 15:12:00,60.8,44.5,29.24,SSE,167,6.0,6.0,55,0.00,,,0.09,67,WeatherCatV1.12B45,2013-04-01 19:12:00,
2013-04-01 15:17:00,60.4,44.6,29.24,SSE,158,9.0,9.0,56,0.00,,,0.09,47,WeatherCatV1.12B45,2013-04-01 19:17:00,
2013-04-01 15:22:00,60.1,44.8,29.24,South,172,3.0,7.0,57,0.00,,,0.09,21,WeatherCatV1.12B45,2013-04-01 19:22:00,
2013-04-01 15:27:00,59.7,44.4,29.24,SSE,156,1.0,4.0,57,0.00,,,0.09,16,WeatherCatV1.12B45,2013-04-01 19:27:00,
2013-04-01 15:32:00,59.5,46.0,29.25,NW,306,2.0,4.0,61,0.00,,,0.09,14,WeatherCatV1.12B45,2013-04-01 19:32:00,
2013-04-01 15:37:00,59.0,47.7,29.25,NW,306,0.0,3.0,66,0.12,,,0.10,26,WeatherCatV1.12B45,2013-04-01 19:37:00,
2013-04-01 15:42:00,58.5,48.0,29.25,SSE,167,1.0,7.0,68,0.97,,,0.15,111,WeatherCatV1.12B45,2013-04-01 19:42:00,
2013-04-01 15:47:00,57.5,47.8,29.25,ESE,122,0.0,7.0,70,0.10,,,0.15,162,WeatherCatV1.12B45,2013-04-01 19:47:00,
2013-04-01 15:52:00,57.0,48.4,29.24,WNW,296,0.0,3.0,73,0.06,,,0.15,123,WeatherCatV1.12B45,2013-04-01 19:52:00,
2013-04-01 15:57:00,56.6,48.4,29.24,SSE,165,0.0,2.0,74,0.04,,,0.15,130,WeatherCatV1.12B45,2013-04-01 19:57:00,
2013-04-01 16:02:00,56.3,48.5,29.24,South,172,0.0,2.0,75,0.00,,,0.15,79,WeatherCatV1.12B45,2013-04-01 20:02:00,
2013-04-01 16:07:00,55.9,47.7,29.25,SSW,194,2.0,12.0,74,0.00,,,0.15,84,WeatherCatV1.12B45,2013-04-01 20:07:00,
2013-04-01 16:12:00,54.5,44.5,29.26,West,270,1.0,6.0,69,0.00,,,0.15,109,WeatherCatV1.12B45,2013-04-01 20:12:00,
2013-04-01 16:17:00,53.6,44.1,29.26,WSW,239,0.0,9.0,70,0.00,,,0.15,77,WeatherCatV1.12B45,2013-04-01 20:17:00,
2013-04-01 16:22:00,52.9,43.8,29.26,ESE,106,1.0,9.0,71,0.00,,,0.15,67,WeatherCatV1.12B45,2013-04-01 20:22:00,
2013-04-01 16:27:00,52.3,43.2,29.27,North,355,2.0,5.0,71,0.00,,,0.15,42,WeatherCatV1.12B45,2013-04-01 20:27:00,
2013-04-01 16:32:00,51.7,43.0,29.27,West,281,3.0,7.0,72,0.00,,,0.15,11,WeatherCatV1.12B45,2013-04-01 20:32:00,
2013-04-01 16:37:00,51.2,42.5,29.28,NW,305,3.0,6.0,72,0.00,,,0.15,9,WeatherCatV1.12B45,2013-04-01 20:37:00,
2013-04-01 16:42:00,50.6,42.6,29.29,SW,226,2.0,6.0,74,0.00,,,0.15,7,WeatherCatV1.12B45,2013-04-01 20:42:00,
2013-04-01 16:47:00,50.1,42.5,29.30,WSW,250,1.0,6.0,75,0.00,,,0.16,9,WeatherCatV1.12B45,2013-04-01 20:47:00,
2013-04-01 16:52:00,49.5,42.3,29.29,WSW,257,0.0,3.0,76,0.00,,,0.16,32,WeatherCatV1.12B45,2013-04-01 20:52:00,
2013-04-01 16:57:00,48.9,42.0,29.29,WSW,252,1.0,6.0,77,0.06,,,0.17,42,WeatherCatV1.12B45,2013-04-01 20:57:00,
2013-04-01 17:02:00,48.4,41.9,29.30,WSW,249,3.0,4.0,78,0.06,,,0.17,19,WeatherCatV1.12B45,2013-04-01 21:02:00,
2013-04-01 17:07:00,47.9,41.7,29.31,NNW,338,0.0,2.0,79,0.07,,,0.18,18,WeatherCatV1.12B45,2013-04-01 21:07:00,
2013-04-01 17:12:00,47.6,41.7,29.31,WNW,296,1.0,3.0,80,0.06,,,0.18,49,WeatherCatV1.12B45,2013-04-01 21:12:00,
2013-04-01 17:17:00,47.4,41.9,29.31,NW,315,1.0,2.0,81,0.04,,,0.18,28,WeatherCatV1.12B45,2013-04-01 21:17:00,
2013-04-01 17:22:00,47.3,41.8,29.32,NW,306,0.0,1.0,81,0.00,,,0.18,63,WeatherCatV1.12B45,2013-04-01 21:22:00,
2013-04-01 17:27:00,47.2,42.0,29.32,NW,310,0.0,3.0,82,0.00,,,0.18,44,WeatherCatV1.12B45,2013-04-01 21:27:00,
2013-04-01 17:32:00,47.0,41.5,29.33,ENE,61,2.0,5.0,81,0.00,,,0.18,88,WeatherCatV1.12B45,2013-04-01 21:32:00,
2013-04-01 17:37:00,46.7,40.2,29.33,WNW,286,1.0,4.0,78,0.00,,,0.18,118,WeatherCatV1.12B45,2013-04-01 21:37:00,
2013-04-01 17:42:00,46.7,39.9,29.34,NW,326,2.0,3.0,77,0.00,,,0.18,146,WeatherCatV1.12B45,2013-04-01 21:42:00,
2013-04-01 17:47:00,46.7,38.9,29.34,South,179,0.0,7.0,74,0.00,,,0.18,88,WeatherCatV1.12B45,2013-04-01 21:47:00,
2013-04-01 17:52:00,46.7,38.2,29.35,WNW,302,0.0,10.0,72,0.00,,,0.18,56,WeatherCatV1.12B45,2013-04-01 21:52:00,
2013-04-01 17:57:00,46.4,36.4,29.35,WNW,288,7.0,9.0,68,0.00,,,0.18,60,WeatherCatV1.12B45,2013-04-01 21:57:00,
2013-04-01 18:02:00,46.0,34.5,29.35,North,355,3.0,9.0,64,0.00,,,0.18,32,WeatherCatV1.12B45,2013-04-01 22:02:00,
2013-04-01 18:07:00,45.7,33.8,29.36,South,186,3.0,6.0,63,0.00,,,0.18,60,WeatherCatV1.12B45,2013-04-01 22:07:00,
2013-04-01 18:12:00,45.5,33.2,29.36,SW,218,1.0,6.0,62,0.00,,,0.18,49,WeatherCatV1.12B45,2013-04-01 22:12:00,
2013-04-01 18:17:00,45.2,32.6,29.36,West,271,2.0,10.0,61,0.00,,,0.18,25,WeatherCatV1.12B45,2013-04-01 22:17:00,
2013-04-01 18:22:00,45.0,32.4,29.37,WNW,298,6.0,9.0,61,0.00,,,0.18,28,WeatherCatV1.12B45,2013-04-01 22:22:00,
2013-04-01 18:27:00,44.9,32.3,29.37,West,275,5.0,11.0,61,0.00,,,0.18,28,WeatherCatV1.12B45,2013-04-01 22:27:00,
2013-04-01 18:32:00,44.7,31.7,29.37,South,176,1.0,5.0,60,0.00,,,0.18,25,WeatherCatV1.12B45,2013-04-01 22:32:00,
2013-04-01 18:37:00,44.5,31.5,29.37,NW,311,6.0,7.0,60,0.00,,,0.18,19,WeatherCatV1.12B45,2013-04-01 22:37:00,
2013-04-01 18:42:00,44.3,31.3,29.38,South,191,1.0,3.0,60,0.00,,,0.18,25,WeatherCatV1.12B45,2013-04-01 22:42:00,
2013-04-01 18:47:00,44.1,31.1,29.38,WNW,288,1.0,6.0,60,0.00,,,0.18,19,WeatherCatV1.12B45,2013-04-01 22:47:00,
2013-04-01 18:52:00,44.0,31.0,29.38,West,263,4.0,4.0,60,0.00,,,0.18,9,WeatherCatV1.12B45,2013-04-01 22:52:00,
2013-04-01 18:57:00,43.7,30.3,29.39,SW,233,1.0,2.0,59,0.00,,,0.18,5,WeatherCatV1.12B45,2013-04-01 22:57:00,
2013-04-01 19:02:00,43.4,30.0,29.39,SW,236,1.0,5.0,59,0.00,,,0.18,0,WeatherCatV1.12B45,2013-04-01 23:02:00,
2013-04-01 19:07:00,43.1,29.8,29.39,SW,224,5.0,6.0,59,0.00,,,0.18,0,WeatherCatV1.12B45,2013-04-01 23:07:00,
2013-04-01 19:12:00,42.9,29.2,29.39,NW,323,1.0,3.0,58,0.00,,,0.18,0,WeatherCatV1.12B45,2013-04-01 23:12:00,
2013-04-01 19:17:00,42.7,29.0,29.39,SSE,161,1.0,15.0,58,0.00,,,0.18,0,WeatherCatV1.12B45,2013-04-01 23:17:00,
2013-04-01 19:22:00,42.6,28.4,29.39,WSW,256,2.0,7.0,57,0.00,,,0.18,0,WeatherCatV1.12B45,2013-04-01 23:22:00,
2013-04-01 19:27:00,42.4,28.3,29.39,West,261,2.0,4.0,57,0.00,,,0.18,0,WeatherCatV1.12B45,2013-04-01 23:27:00,
2013-04-01 19:32:00,42.2,27.6,29.40,West,263,3.0,13.0,56,0.00,,,0.18,0,WeatherCatV1.12B45,2013-04-01 23:32:00,
2013-04-01 19:37:00,41.9,27.4,29.40,SW,221,2.0,10.0,56,0.00,,,0.18,0,WeatherCatV1.12B45,2013-04-01 23:37:00,
2013-04-01 19:42:00,41.7,26.7,29.40,WNW,303,4.0,7.0,55,0.00,,,0.18,0,WeatherCatV1.12B45,2013-04-01 23:42:00,
2013-04-01 19:47:00,41.5,26.6,29.41,South,175,0.0,4.0,55,0.00,,,0.18,0,WeatherCatV1.12B45,2013-04-01 23:47:00,
2013-04-01 19:52:00,41.4,26.9,29.41,South,189,1.0,6.0,56,0.00,,,0.18,0,WeatherCatV1.12B45,2013-04-01 23:52:00,
2013-04-01 19:57:00,41.3,27.2,29.41,WNW,290,3.0,3.0,57,0.00,,,0.18,0,WeatherCatV1.12B45,2013-04-01 23:57:00,
2013-04-01 20:02:00,41.2,27.1,29.41,West,279,1.0,5.0,57,0.00,,,0.18,0,WeatherCatV1.12B45,2013-04-02 00:02:00,
2013-04-01 20:07:00,41.1,26.6,29.41,WSW,240,2.0,6.0,56,0.00,,,0.18,0,WeatherCatV1.12B45,2013-04-02 00:07:00,
2013-04-01 20:12:00,41.1,26.6,29.41,NW,324,0.0,4.0,56,0.00,,,0.18,0,WeatherCatV1.12B45,2013-04-02 00:12:00,
2013-04-01 20:17:00,40.9,26.0,29.42,West,277,2.0,2.0,55,0.00,,,0.18,0,WeatherCatV1.12B45,2013-04-02 00:17:00,
2013-04-01 20:22:00,40.7,23.5,29.42,WNW,291,1.0,5.0,50,0.00,,,0.18,0,WeatherCatV1.12B45,2013-04-02 00:22:00,
2013-04-01 20:27:00,40.5,22.9,29.43,SW,230,0.0,2.0,49,0.00,,,0.18,0,WeatherCatV1.12B45,2013-04-02 00:27:00,
2013-04-01 20:32:00,40.4,23.2,29.44,WNW,290,1.0,5.0,50,0.00,,,0.18,0,WeatherCatV1.12B45,2013-04-02 00:32:00,
2013-04-01 20:37:00,40.2,22.6,29.44,SSW,201,1.0,3.0,49,0.00,,,0.18,0,WeatherCatV1.12B45,2013-04-02 00:37:00,
2013-04-01 20:42:00,40.0,21.4,29.44,North,355,1.0,5.0,47,0.00,,,0.18,0,WeatherCatV1.12B45,2013-04-02 00:42:00,
2013-04-01 20:47:00,39.8,21.2,29.45,SSW,194,0.0,6.0,47,0.00,,,0.18,0,WeatherCatV1.12B45,2013-04-02 00:47:00,
2013-04-01 20:52:00,39.6,21.0,29.45,WNW,286,2.0,5.0,47,0.00,,,0.18,0,WeatherCatV1.12B45,2013-04-02 00:52:00,
2013-04-01 20:57:00,39.4,20.4,29.45,West,268,5.0,10.0,46,0.00,,,0.18,0,WeatherCatV1.12B45,2013-04-02 00:57:00,
2013-04-01 21:02:00,39.3,20.3,29.46,West,275,0.0,4.0,46,0.00,,,0.18,0,WeatherCatV1.12B45,2013-04-02 01:02:00,
2013-04-01 21:07:00,39.1,20.6,29.46,WNW,291,0.0,3.0,47,0.00,,,0.18,0,WeatherCatV1.12B45,2013-04-02 01:07:00,
2013-04-01 21:12:00,38.9,20.4,29.46,SW,215,1.0,4.0,47,0.00,,,0.18,0,WeatherCatV1.12B45,2013-04-02 01:12:00,
2013-04-01 21:17:00,38.7,19.2,29.47,SE,134,0.0,6.0,45,0.00,,,0.18,0,WeatherCatV1.12B45,2013-04-02 01:17:00,
2013-04-01 21:22:00,38.6,19.1,29.46,WNW,299,0.0,4.0,45,0.00,,,0.18,0,WeatherCatV1.12B45,2013-04-02 01:22:00,
2013-04-01 21:27:00,38.4,19.4,29.46,SSW,212,0.0,2.0,46,0.00,,,0.18,0,WeatherCatV1.12B45,2013-04-02 01:27:00,
2013-04-01 21:32:00,38.2,19.3,29.46,NW,307,0.0,4.0,46,0.00,,,0.18,0,WeatherCatV1.12B45,2013-04-02 01:32:00,
2013-04-01 21:37:00,38.0,18.6,29.47,WNW,303,0.0,5.0,45,0.00,,,0.18,0,WeatherCatV1.12B45,2013-04-02 01:37:00,
2013-04-01 21:42:00,37.9,19.0,29.47,WSW,240,0.0,4.0,46,0.00,,,0.18,0,WeatherCatV1.12B45,2013-04-02 01:42:00,
2013-04-01 21:47:00,37.7,18.3,29.47,NW,310,2.0,9.0,45,0.00,,,0.18,0,WeatherCatV1.12B45,2013-04-02 01:47:00,
2013-04-01 21:52:00,37.6,18.2,29.47,NW,307,2.0,4.0,45,0.00,,,0.18,0,WeatherCatV1.12B45,2013-04-02 01:52:00,
2013-04-01 21:57:00,37.4,18.0,29.47,West,274,4.0,4.0,45,0.00,,,0.18,0,WeatherCatV1.12B45,2013-04-02 01:57:00,
2013-04-01 22:02:00,37.3,16.9,29.47,WNW,301,2.0,9.0,43,0.00,,,0.18,0,WeatherCatV1.12B45,2013-04-02 02:02:00,
2013-04-01 22:07:00,37.2,16.8,29.48,WNW,290,0.0,4.0,43,0.00,,,0.18,0,WeatherCatV1.12B45,2013-04-02 02:07:00,
2013-04-01 22:12:00,37.0,16.1,29.48,North,355,5.0,7.0,42,0.00,,,0.18,0,WeatherCatV1.12B45,2013-04-02 02:12:00,
2013-04-01 22:17:00,36.9,15.4,29.48,NW,309,6.0,6.0,41,0.00,,,0.18,0,WeatherCatV1.12B45,2013-04-02 02:17:00,
2013-04-01 22:22:00,36.8,15.3,29.48,NNW,341,1.0,10.0,41,0.00,,,0.18,0,WeatherCatV1.12B45,2013-04-02 02:22:00,
2013-04-01 22:27:00,36.6,15.2,29.49,West,267,2.0,6.0,41,0.00,,,0.18,0,WeatherCatV1.12B45,2013-04-02 02:27:00,
2013-04-01 22:32:00,36.5,15.6,29.49,WSW,254,0.0,7.0,42,0.00,,,0.18,0,WeatherCatV1.12B45,2013-04-02 02:32:00,
2013-04-01 22:37:00,36.4,15.5,29.49,WNW,296,0.0,2.0,42,0.00,,,0.18,0,WeatherCatV1.12B45,2013-04-02 02:37:00,
2013-04-01 22:42:00,36.3,15.4,29.49,NW,325,1.0,3.0,42,0.00,,,0.18,0,WeatherCatV1.12B45,2013-04-02 02:42:00,
2013-04-01 22:47:00,36.2,15.3,29.49,NW,308,3.0,4.0,42,0.00,,,0.18,0,WeatherCatV1.12B45,2013-04-02 02:47:00,
2013-04-01 22:52:00,36.1,15.3,29.49,SE,142,1.0,10.0,42,0.00,,,0.18,0,WeatherCatV1.12B45,2013-04-02 02:52:00,
2013-04-01 22:57:00,36.0,15.2,29.49,WSW,249,0.0,10.0,42,0.00,,,0.18,0,WeatherCatV1.12B45,2013-04-02 02:57:00,
2013-04-01 23:02:00,35.8,15.5,29.50,NE,46,0.0,2.0,43,0.00,,,0.18,0,WeatherCatV1.12B45,2013-04-02 03:02:00,
2013-04-01 23:07:00,35.7,15.4,29.50,WNW,300,0.0,4.0,43,0.00,,,0.18,0,WeatherCatV1.12B45,2013-04-02 03:07:00,
2013-04-01 23:12:00,35.6,15.3,29.50,SW,229,0.0,4.0,43,0.00,,,0.18,0,WeatherCatV1.12B45,2013-04-02 03:12:00,
2013-04-01 23:17:00,35.4,15.2,29.50,WNW,287,3.0,16.0,43,0.00,,,0.18,0,WeatherCatV1.12B45,2013-04-02 03:17:00,
2013-04-01 23:22:00,35.3,15.1,29.50,WNW,301,2.0,6.0,43,0.00,,,0.18,0,WeatherCatV1.12B45,2013-04-02 03:22:00,
2013-04-01 23:27:00,35.1,15.4,29.50,SSW,213,1.0,9.0,44,0.00,,,0.18,0,WeatherCatV1.12B45,2013-04-02 03:27:00,
2013-04-01 23:32:00,35.0,15.3,29.51,South,173,0.0,4.0,44,0.00,,,0.18,0,WeatherCatV1.12B45,2013-04-02 03:32:00,
2013-04-01 23:37:00,34.8,15.1,29.51,NW,306,0.0,6.0,44,0.00,,,0.18,0,WeatherCatV1.12B45,2013-04-02 03:37:00,
2013-04-01 23:42:00,34.6,15.0,29.51,WNW,283,6.0,6.0,44,0.00,,,0.18,0,WeatherCatV1.12B45,2013-04-02 03:42:00,
2013-04-01 23:47:00,34.4,15.3,29.51,WNW,284,0.0,3.0,45,0.00,,,0.18,0,WeatherCatV1.12B45,2013-04-02 03:47:00,
2013-04-01 23:52:00,34.4,15.3,29.52,WNW,299,0.0,5.0,45,0.00,,,0.18,0,WeatherCatV1.12B45,2013-04-02 03:52:00,
2013-04-01 23:57:00,34.4,15.8,29.52,NW,312,3.0,4.0,46,0.00,,,0.18,0,WeatherCatV1.12B45,2013-04-02 03:57:00,